Year,Month,Day,Hour,Minute,Value (Times are PST for temperature in C)
2009,07,16,00,00,17.50
2009,07,16,00,01,17.50
2009,07,16,00,02,17.50
2009,07,16,00,03,17.40
2009,07,16,00,04,17.40
2009,07,16,00,05,17.30
2009,07,16,00,06,17.30
2009,07,16,00,07,17.30
2009,07,16,00,08,17.30
2009,07,16,00,09,17.20
2009,07,16,00,10,17.20
2009,07,16,00,11,17.20
2009,07,16,00,12,17.20
2009,07,16,00,13,17.10
2009,07,16,00,14,17.10
2009,07,16,00,15,17.00
2009,07,16,00,16,17.00
2009,07,16,00,17,16.90
2009,07,16,00,18,16.90
2009,07,16,00,19,16.90
2009,07,16,00,20,16.80
2009,07,16,00,21,16.80
2009,07,16,00,22,16.70
2009,07,16,00,23,16.70
2009,07,16,00,24,16.70
2009,07,16,00,25,16.70
2009,07,16,00,26,16.60
2009,07,16,00,27,16.60
2009,07,16,00,28,16.50
2009,07,16,00,29,16.40
2009,07,16,00,30,16.40
2009,07,16,00,31,16.30
2009,07,16,00,32,16.30
2009,07,16,00,33,16.20
2009,07,16,00,34,16.20
2009,07,16,00,35,16.10
2009,07,16,00,36,16.10
2009,07,16,00,37,16.10
2009,07,16,00,38,16.00
2009,07,16,00,39,15.90
2009,07,16,00,40,15.90
2009,07,16,00,41,15.90
2009,07,16,00,42,15.80
2009,07,16,00,43,15.80
2009,07,16,00,44,15.80
2009,07,16,00,45,15.80
2009,07,16,00,46,15.80
2009,07,16,00,47,15.80
2009,07,16,00,48,15.80
2009,07,16,00,49,15.80
2009,07,16,00,50,15.80
2009,07,16,00,51,15.80
2009,07,16,00,52,15.80
2009,07,16,00,53,15.80
2009,07,16,00,54,15.80
2009,07,16,00,55,15.80
2009,07,16,00,56,15.70
2009,07,16,00,57,15.70
2009,07,16,00,58,15.70
2009,07,16,00,59,15.70
2009,07,16,01,00,15.70
2009,07,16,01,01,15.60
2009,07,16,01,02,15.60
2009,07,16,01,03,15.60
2009,07,16,01,04,15.50
2009,07,16,01,05,15.50
2009,07,16,01,06,15.50
2009,07,16,01,07,15.50
2009,07,16,01,08,15.50
2009,07,16,01,09,15.50
2009,07,16,01,10,15.50
2009,07,16,01,11,15.50
2009,07,16,01,12,15.50
2009,07,16,01,13,15.50
2009,07,16,01,14,15.50
2009,07,16,01,15,15.50
2009,07,16,01,16,15.40
2009,07,16,01,17,15.40
2009,07,16,01,18,15.40
2009,07,16,01,19,15.40
2009,07,16,01,20,15.40
2009,07,16,01,21,15.40
2009,07,16,01,22,15.40
2009,07,16,01,23,15.30
2009,07,16,01,24,15.30
2009,07,16,01,25,15.30
2009,07,16,01,26,15.30
2009,07,16,01,27,15.30
2009,07,16,01,28,15.30
2009,07,16,01,29,15.30
2009,07,16,01,30,15.30
2009,07,16,01,31,15.30
2009,07,16,01,32,15.30
2009,07,16,01,33,15.30
2009,07,16,01,34,15.30
2009,07,16,01,35,15.30
2009,07,16,01,36,15.30
2009,07,16,01,37,15.30
2009,07,16,01,38,15.30
2009,07,16,01,39,15.20
2009,07,16,01,40,15.20
2009,07,16,01,41,15.20
2009,07,16,01,42,15.20
2009,07,16,01,43,15.20
2009,07,16,01,44,15.10
2009,07,16,01,45,15.10
2009,07,16,01,46,15.10
2009,07,16,01,47,15.00
2009,07,16,01,48,15.00
2009,07,16,01,49,15.00
2009,07,16,01,50,15.00
2009,07,16,01,51,14.90
2009,07,16,01,52,15.00
2009,07,16,01,53,15.00
2009,07,16,01,54,15.00
2009,07,16,01,55,15.00
2009,07,16,01,56,15.10
2009,07,16,01,57,15.10
2009,07,16,01,58,15.20
2009,07,16,01,59,15.20
2009,07,16,02,00,15.20
2009,07,16,02,01,15.20
2009,07,16,02,02,15.30
2009,07,16,02,03,15.30
2009,07,16,02,04,15.30
2009,07,16,02,05,15.30
2009,07,16,02,06,15.30
2009,07,16,02,07,15.30
2009,07,16,02,08,15.30
2009,07,16,02,09,15.20
2009,07,16,02,10,15.20
2009,07,16,02,11,15.20
2009,07,16,02,12,15.20
2009,07,16,02,13,15.30
2009,07,16,02,14,15.30
2009,07,16,02,15,15.30
2009,07,16,02,16,15.30
2009,07,16,02,17,15.30
2009,07,16,02,18,15.30
2009,07,16,02,19,15.30
2009,07,16,02,20,15.30
2009,07,16,02,21,15.30
2009,07,16,02,22,15.30
2009,07,16,02,23,15.30
2009,07,16,02,24,15.30
2009,07,16,02,25,15.30
2009,07,16,02,26,15.40
2009,07,16,02,27,15.40
2009,07,16,02,28,15.30
2009,07,16,02,29,15.30
2009,07,16,02,30,15.30
2009,07,16,02,31,15.30
2009,07,16,02,32,15.30
2009,07,16,02,33,15.30
2009,07,16,02,34,15.30
2009,07,16,02,35,15.30
2009,07,16,02,36,15.30
2009,07,16,02,37,15.30
2009,07,16,02,38,15.30
2009,07,16,02,39,15.40
2009,07,16,02,40,15.40
2009,07,16,02,41,15.40
2009,07,16,02,42,15.40
2009,07,16,02,43,15.40
2009,07,16,02,44,15.30
2009,07,16,02,45,15.30
2009,07,16,02,46,15.30
2009,07,16,02,47,15.30
2009,07,16,02,48,15.30
2009,07,16,02,49,15.30
2009,07,16,02,50,15.30
2009,07,16,02,51,15.30
2009,07,16,02,52,15.30
2009,07,16,02,53,15.30
2009,07,16,02,54,15.30
2009,07,16,02,55,15.30
2009,07,16,02,56,15.30
2009,07,16,02,57,15.30
2009,07,16,02,58,15.30
2009,07,16,02,59,15.30
2009,07,16,03,00,15.30
2009,07,16,03,01,15.30
2009,07,16,03,02,15.30
2009,07,16,03,03,15.30
2009,07,16,03,04,15.30
2009,07,16,03,05,15.20
2009,07,16,03,06,15.20
2009,07,16,03,07,15.20
2009,07,16,03,08,15.20
2009,07,16,03,09,15.20
2009,07,16,03,10,15.10
2009,07,16,03,11,15.10
2009,07,16,03,12,15.10
2009,07,16,03,13,15.10
2009,07,16,03,14,15.00
2009,07,16,03,15,15.00
2009,07,16,03,16,15.00
2009,07,16,03,17,14.90
2009,07,16,03,18,14.90
2009,07,16,03,19,14.90
2009,07,16,03,20,14.90
2009,07,16,03,21,14.90
2009,07,16,03,22,14.80
2009,07,16,03,23,14.80
2009,07,16,03,24,14.80
2009,07,16,03,25,14.80
2009,07,16,03,26,14.80
2009,07,16,03,27,14.80
2009,07,16,03,28,14.80
2009,07,16,03,29,14.70
2009,07,16,03,30,14.70
2009,07,16,03,31,14.70
2009,07,16,03,32,14.70
2009,07,16,03,33,14.70
2009,07,16,03,34,14.70
2009,07,16,03,35,14.70
2009,07,16,03,36,14.70
2009,07,16,03,37,14.70
2009,07,16,03,38,14.70
2009,07,16,03,39,14.70
2009,07,16,03,40,14.70
2009,07,16,03,41,14.70
2009,07,16,03,42,14.70
2009,07,16,03,43,14.70
2009,07,16,03,44,14.60
2009,07,16,03,45,14.60
2009,07,16,03,46,14.50
2009,07,16,03,47,14.50
2009,07,16,03,48,14.50
2009,07,16,03,49,14.50
2009,07,16,03,50,14.50
2009,07,16,03,51,14.40
2009,07,16,03,52,14.40
2009,07,16,03,53,14.40
2009,07,16,03,54,14.40
2009,07,16,03,55,14.30
2009,07,16,03,56,14.30
2009,07,16,03,57,14.20
2009,07,16,03,58,14.20
2009,07,16,03,59,14.20
2009,07,16,04,00,14.20
2009,07,16,04,01,14.20
2009,07,16,04,02,14.20
2009,07,16,04,03,14.20
2009,07,16,04,05,14.20
2009,07,16,04,06,14.20
2009,07,16,04,07,14.20
2009,07,16,04,08,14.20
2009,07,16,04,09,14.20
2009,07,16,04,10,14.20
2009,07,16,04,11,14.20
2009,07,16,04,12,14.20
2009,07,16,04,13,14.20
2009,07,16,04,14,14.10
2009,07,16,04,15,14.10
2009,07,16,04,16,14.10
2009,07,16,04,17,14.00
2009,07,16,04,18,14.00
2009,07,16,04,19,14.00
2009,07,16,04,20,13.90
2009,07,16,04,21,13.90
2009,07,16,04,22,13.90
2009,07,16,04,23,13.80
2009,07,16,04,24,13.80
2009,07,16,04,25,13.70
2009,07,16,04,26,13.70
2009,07,16,04,27,13.70
2009,07,16,04,28,13.70
2009,07,16,04,29,13.70
2009,07,16,04,30,13.70
2009,07,16,04,31,13.70
2009,07,16,04,32,13.70
2009,07,16,04,33,13.70
2009,07,16,04,34,13.60
2009,07,16,04,35,13.60
2009,07,16,04,36,13.60
2009,07,16,04,37,13.60
2009,07,16,04,38,13.70
2009,07,16,04,39,13.70
2009,07,16,04,40,13.70
2009,07,16,04,41,13.70
2009,07,16,04,42,13.70
2009,07,16,04,43,13.70
2009,07,16,04,44,13.80
2009,07,16,04,45,13.80
2009,07,16,04,46,13.90
2009,07,16,04,47,13.90
2009,07,16,04,48,13.90
2009,07,16,04,49,13.90
2009,07,16,04,50,13.90
2009,07,16,04,51,13.90
2009,07,16,04,52,14.00
2009,07,16,04,53,14.00
2009,07,16,04,54,14.00
2009,07,16,04,55,14.00
2009,07,16,04,56,14.10
2009,07,16,04,57,14.10
2009,07,16,04,58,14.10
2009,07,16,04,59,14.10
2009,07,16,05,00,14.10
2009,07,16,05,01,14.10
2009,07,16,05,02,14.10
2009,07,16,05,03,14.10
2009,07,16,05,04,14.20
2009,07,16,05,05,14.20
2009,07,16,05,06,14.20
2009,07,16,05,07,14.20
2009,07,16,05,08,14.20
2009,07,16,05,09,14.10
2009,07,16,05,10,14.10
2009,07,16,05,11,14.00
2009,07,16,05,12,14.00
2009,07,16,05,13,14.00
2009,07,16,05,14,14.00
2009,07,16,05,15,14.00
2009,07,16,05,16,14.00
2009,07,16,05,17,14.00
2009,07,16,05,18,14.00
2009,07,16,05,19,14.00
2009,07,16,05,20,14.00
2009,07,16,05,21,14.10
2009,07,16,05,22,14.10
2009,07,16,05,23,14.20
2009,07,16,05,24,14.20
2009,07,16,05,25,14.20
2009,07,16,05,26,14.20
2009,07,16,05,27,14.20
2009,07,16,05,28,14.20
2009,07,16,05,29,14.20
2009,07,16,05,30,14.20
2009,07,16,05,31,14.20
2009,07,16,05,32,14.20
2009,07,16,05,33,14.20
2009,07,16,05,34,14.20
2009,07,16,05,35,14.20
2009,07,16,05,36,14.20
2009,07,16,05,37,14.20
2009,07,16,05,38,14.20
2009,07,16,05,39,14.30
2009,07,16,05,40,14.30
2009,07,16,05,41,14.40
2009,07,16,05,42,14.40
2009,07,16,05,43,14.50
2009,07,16,05,44,14.50
2009,07,16,05,45,14.50
2009,07,16,05,46,14.60
2009,07,16,05,47,14.60
2009,07,16,05,48,14.60
2009,07,16,05,49,14.60
2009,07,16,05,50,14.60
2009,07,16,05,51,14.60
2009,07,16,05,52,14.60
2009,07,16,05,53,14.60
2009,07,16,05,54,14.60
2009,07,16,05,55,14.60
2009,07,16,05,56,14.60
2009,07,16,05,57,14.60
2009,07,16,05,58,14.60
2009,07,16,05,59,14.60
2009,07,16,06,00,14.60
2009,07,16,06,01,14.60
2009,07,16,06,02,14.60
2009,07,16,06,03,14.70
2009,07,16,06,04,14.70
2009,07,16,06,05,14.70
2009,07,16,06,06,14.70
2009,07,16,06,07,14.70
2009,07,16,06,08,14.80
2009,07,16,06,09,14.80
2009,07,16,06,10,14.80
2009,07,16,06,11,14.80
2009,07,16,06,12,14.80
2009,07,16,06,13,14.90
2009,07,16,06,14,14.90
2009,07,16,06,15,15.00
2009,07,16,06,16,15.00
2009,07,16,06,17,15.00
2009,07,16,06,18,15.10
2009,07,16,06,19,15.10
2009,07,16,06,20,15.20
2009,07,16,06,21,15.20
2009,07,16,06,22,15.20
2009,07,16,06,23,15.30
2009,07,16,06,24,15.30
2009,07,16,06,25,15.40
2009,07,16,06,26,15.40
2009,07,16,06,27,15.50
2009,07,16,06,28,15.50
2009,07,16,06,29,15.50
2009,07,16,06,30,15.60
2009,07,16,06,31,15.60
2009,07,16,06,32,15.60
2009,07,16,06,33,15.70
2009,07,16,06,34,15.70
2009,07,16,06,35,15.80
2009,07,16,06,36,15.80
2009,07,16,06,37,15.80
2009,07,16,06,38,15.80
2009,07,16,06,39,15.80
2009,07,16,06,40,15.80
2009,07,16,06,41,15.90
2009,07,16,06,42,15.90
2009,07,16,06,43,15.90
2009,07,16,06,44,16.00
2009,07,16,06,45,16.10
2009,07,16,06,46,16.10
2009,07,16,06,47,16.10
2009,07,16,06,48,16.10
2009,07,16,06,49,16.10
2009,07,16,06,50,16.20
2009,07,16,06,51,16.20
2009,07,16,06,52,16.20
2009,07,16,06,53,16.20
2009,07,16,06,54,16.30
2009,07,16,06,55,16.30
2009,07,16,06,56,16.30
2009,07,16,06,57,16.30
2009,07,16,06,58,16.30
2009,07,16,06,59,16.40
2009,07,16,07,00,16.40
2009,07,16,07,01,16.40
2009,07,16,07,02,16.40
2009,07,16,07,03,16.50
2009,07,16,07,04,16.60
2009,07,16,07,05,16.60
2009,07,16,07,06,16.70
2009,07,16,07,07,16.70
2009,07,16,07,08,16.70
2009,07,16,07,09,16.70
2009,07,16,07,10,16.80
2009,07,16,07,11,16.80
2009,07,16,07,12,16.90
2009,07,16,07,13,16.90
2009,07,16,07,14,17.00
2009,07,16,07,15,17.00
2009,07,16,07,16,17.10
2009,07,16,07,17,17.10
2009,07,16,07,18,17.20
2009,07,16,07,19,17.20
2009,07,16,07,20,17.20
2009,07,16,07,21,17.20
2009,07,16,07,22,17.20
2009,07,16,07,23,17.20
2009,07,16,07,24,17.20
2009,07,16,07,25,17.20
2009,07,16,07,26,17.30
2009,07,16,07,27,17.30
2009,07,16,07,28,17.30
2009,07,16,07,29,17.30
2009,07,16,07,30,17.30
2009,07,16,07,31,17.30
2009,07,16,07,32,17.30
2009,07,16,07,33,17.30
2009,07,16,07,34,17.30
2009,07,16,07,35,17.40
2009,07,16,07,36,17.40
2009,07,16,07,37,17.40
2009,07,16,07,38,17.40
2009,07,16,07,39,17.50
2009,07,16,07,40,17.50
2009,07,16,07,41,17.50
2009,07,16,07,42,17.60
2009,07,16,07,43,17.60
2009,07,16,07,44,17.70
2009,07,16,07,45,17.70
2009,07,16,07,46,17.70
2009,07,16,07,47,17.70
2009,07,16,07,48,17.80
2009,07,16,07,49,17.80
2009,07,16,07,50,17.80
2009,07,16,07,51,17.90
2009,07,16,07,52,17.90
2009,07,16,07,53,17.90
2009,07,16,07,54,17.90
2009,07,16,07,55,17.90
2009,07,16,07,56,17.90
2009,07,16,07,57,17.90
2009,07,16,07,58,18.00
2009,07,16,07,59,18.10
2009,07,16,08,00,18.10
2009,07,16,08,01,18.10
2009,07,16,08,02,18.20
2009,07,16,08,03,18.20
2009,07,16,08,04,18.20
2009,07,16,08,05,18.20
2009,07,16,08,06,18.20
2009,07,16,08,07,18.30
2009,07,16,08,08,18.30
2009,07,16,08,09,18.30
2009,07,16,08,10,18.40
2009,07,16,08,11,18.40
2009,07,16,08,12,18.50
2009,07,16,08,13,18.50
2009,07,16,08,14,18.60
2009,07,16,08,15,18.60
2009,07,16,08,16,18.70
2009,07,16,08,17,18.70
2009,07,16,08,18,18.80
2009,07,16,08,19,18.80
2009,07,16,08,20,18.90
2009,07,16,08,21,18.90
2009,07,16,08,22,18.90
2009,07,16,08,23,18.90
2009,07,16,08,24,18.90
2009,07,16,08,25,18.90
2009,07,16,08,26,18.90
2009,07,16,08,27,18.90
2009,07,16,08,28,18.90
2009,07,16,08,29,18.90
2009,07,16,08,30,18.90
2009,07,16,08,31,18.90
2009,07,16,08,32,18.90
2009,07,16,08,33,18.90
2009,07,16,08,34,19.00
2009,07,16,08,35,19.10
2009,07,16,08,36,19.10
2009,07,16,08,37,19.10
2009,07,16,08,38,19.10
2009,07,16,08,39,19.20
2009,07,16,08,40,19.20
2009,07,16,08,41,19.30
2009,07,16,08,42,19.30
2009,07,16,08,43,19.40
2009,07,16,08,44,19.40
2009,07,16,08,45,19.50
2009,07,16,08,46,19.50
2009,07,16,08,47,19.50
2009,07,16,08,48,19.40
2009,07,16,08,49,19.40
2009,07,16,08,50,19.40
2009,07,16,08,51,19.40
2009,07,16,08,52,19.40
2009,07,16,08,53,19.50
2009,07,16,08,54,19.50
2009,07,16,08,55,19.50
2009,07,16,08,56,19.50
2009,07,16,08,57,19.50
2009,07,16,08,58,19.50
2009,07,16,08,59,19.50
2009,07,16,09,00,19.40
2009,07,16,09,01,19.40
2009,07,16,09,02,19.40
2009,07,16,09,03,19.40
2009,07,16,09,04,19.40
2009,07,16,09,05,19.30
2009,07,16,09,06,19.30
2009,07,16,09,07,19.30
2009,07,16,09,08,19.30
2009,07,16,09,09,19.30
2009,07,16,09,10,19.30
2009,07,16,09,11,19.30
2009,07,16,09,12,19.30
2009,07,16,09,13,19.30
2009,07,16,09,14,19.30
2009,07,16,09,15,19.40
2009,07,16,09,16,19.40
2009,07,16,09,17,19.50
2009,07,16,09,18,19.60
2009,07,16,09,19,19.60
2009,07,16,09,20,19.70
2009,07,16,09,21,19.70
2009,07,16,09,22,19.70
2009,07,16,09,23,19.60
2009,07,16,09,24,19.60
2009,07,16,09,25,19.60
2009,07,16,09,26,19.60
2009,07,16,09,27,19.60
2009,07,16,09,28,19.60
2009,07,16,09,29,19.50
2009,07,16,09,30,19.50
2009,07,16,09,31,19.40
2009,07,16,09,32,19.40
2009,07,16,09,33,19.40
2009,07,16,09,34,19.40
2009,07,16,09,35,19.40
2009,07,16,09,36,19.40
2009,07,16,09,37,19.30
2009,07,16,09,38,19.30
2009,07,16,09,39,19.20
2009,07,16,09,40,19.20
2009,07,16,09,41,19.20
2009,07,16,09,42,19.30
2009,07,16,09,43,19.30
2009,07,16,09,44,19.40
2009,07,16,09,45,19.40
2009,07,16,09,46,19.40
2009,07,16,09,47,19.40
2009,07,16,09,48,19.40
2009,07,16,09,49,19.40
2009,07,16,09,50,19.50
2009,07,16,09,51,19.50
2009,07,16,09,52,19.60
2009,07,16,09,53,19.60
2009,07,16,09,54,19.60
2009,07,16,09,55,19.70
2009,07,16,09,56,19.70
2009,07,16,09,57,19.70
2009,07,16,09,58,19.70
2009,07,16,09,59,19.70
2009,07,16,10,00,19.70
2009,07,16,10,01,19.70
2009,07,16,10,02,19.70
2009,07,16,10,03,19.70
2009,07,16,10,04,19.70
2009,07,16,10,05,19.60
2009,07,16,10,06,19.60
2009,07,16,10,07,19.60
2009,07,16,10,08,19.50
2009,07,16,10,09,19.50
2009,07,16,10,10,19.50
2009,07,16,10,11,19.60
2009,07,16,10,12,19.60
2009,07,16,10,13,19.60
2009,07,16,10,14,19.70
2009,07,16,10,15,19.80
2009,07,16,10,16,19.90
2009,07,16,10,17,19.90
2009,07,16,10,18,19.90
2009,07,16,10,19,20.00
2009,07,16,10,20,20.10
2009,07,16,10,21,20.10
2009,07,16,10,22,20.10
2009,07,16,10,23,20.10
2009,07,16,10,24,20.20
2009,07,16,10,25,20.20
2009,07,16,10,26,20.20
2009,07,16,10,27,20.20
2009,07,16,10,28,20.20
2009,07,16,10,29,20.20
2009,07,16,10,30,20.20
2009,07,16,10,31,20.30
2009,07,16,10,32,20.40
2009,07,16,10,33,20.50
2009,07,16,10,34,20.60
2009,07,16,10,35,20.70
2009,07,16,10,36,20.80
2009,07,16,10,37,20.80
2009,07,16,10,38,20.80
2009,07,16,10,39,20.80
2009,07,16,10,40,20.80
2009,07,16,10,41,20.80
2009,07,16,10,42,20.80
2009,07,16,10,43,20.80
2009,07,16,10,44,20.70
2009,07,16,10,45,20.70
2009,07,16,10,46,20.70
2009,07,16,10,47,20.70
2009,07,16,10,48,20.70
2009,07,16,10,49,20.70
2009,07,16,10,50,20.80
2009,07,16,10,51,20.80
2009,07,16,10,52,20.80
2009,07,16,10,53,20.80
2009,07,16,10,54,20.80
2009,07,16,10,55,20.80
2009,07,16,10,56,20.80
2009,07,16,10,57,20.90
2009,07,16,10,58,20.90
2009,07,16,10,59,20.90
2009,07,16,11,00,20.90
2009,07,16,11,01,20.80
2009,07,16,11,02,20.80
2009,07,16,11,03,20.80
2009,07,16,11,04,20.80
2009,07,16,11,05,20.90
2009,07,16,11,06,21.00
2009,07,16,11,07,21.00
2009,07,16,11,08,21.00
2009,07,16,11,09,21.10
2009,07,16,11,10,21.20
2009,07,16,11,11,21.20
2009,07,16,11,12,21.20
2009,07,16,11,13,21.10
2009,07,16,11,14,21.10
2009,07,16,11,15,21.10
2009,07,16,11,16,21.20
2009,07,16,11,17,21.20
2009,07,16,11,18,21.20
2009,07,16,11,19,21.30
2009,07,16,11,20,21.20
2009,07,16,11,21,21.20
2009,07,16,11,22,21.20
2009,07,16,11,23,21.30
2009,07,16,11,24,21.30
2009,07,16,11,25,21.30
2009,07,16,11,26,21.40
2009,07,16,11,27,21.40
2009,07,16,11,28,21.40
2009,07,16,11,29,21.50
2009,07,16,11,30,21.60
2009,07,16,11,31,21.60
2009,07,16,11,32,21.70
2009,07,16,11,33,21.70
2009,07,16,11,34,21.70
2009,07,16,11,35,21.70
2009,07,16,11,36,21.60
2009,07,16,11,37,21.40
2009,07,16,11,38,21.30
2009,07,16,11,39,21.30
2009,07,16,11,40,21.30
2009,07,16,11,41,21.30
2009,07,16,11,42,21.30
2009,07,16,11,43,21.30
2009,07,16,11,44,21.50
2009,07,16,11,45,21.60
2009,07,16,11,46,21.60
2009,07,16,11,47,21.60
2009,07,16,11,48,21.60
2009,07,16,11,49,21.60
2009,07,16,11,50,21.70
2009,07,16,11,51,21.80
2009,07,16,11,52,21.90
2009,07,16,11,53,21.90
2009,07,16,11,54,21.90
2009,07,16,11,55,21.90
2009,07,16,11,56,21.90
2009,07,16,11,57,21.90
2009,07,16,11,58,21.90
2009,07,16,11,59,21.90
2009,07,16,12,00,21.90
2009,07,16,12,01,21.80
2009,07,16,12,02,21.70
2009,07,16,12,03,21.70
2009,07,16,12,04,21.70
2009,07,16,12,05,21.80
2009,07,16,12,06,21.90
2009,07,16,12,07,22.00
2009,07,16,12,08,22.00
2009,07,16,12,09,22.00
2009,07,16,12,10,22.00
2009,07,16,12,11,22.00
2009,07,16,12,12,22.10
2009,07,16,12,13,22.10
2009,07,16,12,14,22.30
2009,07,16,12,15,22.40
2009,07,16,12,16,22.60
2009,07,16,12,17,22.60
2009,07,16,12,18,22.80
2009,07,16,12,19,22.90
2009,07,16,12,20,23.00
2009,07,16,12,21,23.20
2009,07,16,12,22,23.30
2009,07,16,12,23,23.50
2009,07,16,12,24,23.60
2009,07,16,12,25,23.70
2009,07,16,12,26,23.70
2009,07,16,12,27,23.80
2009,07,16,12,28,24.00
2009,07,16,12,29,24.10
2009,07,16,12,30,23.90
2009,07,16,12,31,24.00
2009,07,16,12,32,24.00
2009,07,16,12,33,23.80
2009,07,16,12,34,23.70
2009,07,16,12,35,23.70
2009,07,16,12,36,23.70
2009,07,16,12,37,23.80
2009,07,16,12,38,24.00
2009,07,16,12,39,24.10
2009,07,16,12,40,24.20
2009,07,16,12,41,24.30
2009,07,16,12,42,24.40
2009,07,16,12,43,24.40
2009,07,16,12,44,24.40
2009,07,16,12,45,24.40
2009,07,16,12,46,24.30
2009,07,16,12,47,24.20
2009,07,16,12,48,24.20
2009,07,16,12,49,24.20
2009,07,16,12,50,24.10
2009,07,16,12,51,24.10
2009,07,16,12,52,24.10
2009,07,16,12,53,24.10
2009,07,16,12,54,24.10
2009,07,16,12,55,24.10
2009,07,16,12,56,24.10
2009,07,16,12,57,24.10
2009,07,16,12,58,24.10
2009,07,16,12,59,24.20
2009,07,16,13,00,24.30
2009,07,16,13,01,24.50
2009,07,16,13,02,24.60
2009,07,16,13,03,24.60
2009,07,16,13,04,24.60
2009,07,16,13,05,24.60
2009,07,16,13,06,24.70
2009,07,16,13,07,24.70
2009,07,16,13,08,24.80
2009,07,16,13,09,24.80
2009,07,16,13,10,24.80
2009,07,16,13,11,24.80
2009,07,16,13,12,24.70
2009,07,16,13,13,24.60
2009,07,16,13,14,24.60
2009,07,16,13,15,24.60
2009,07,16,13,16,24.80
2009,07,16,13,17,24.90
2009,07,16,13,18,25.00
2009,07,16,13,19,25.20
2009,07,16,13,20,25.20
2009,07,16,13,21,25.20
2009,07,16,13,22,25.20
2009,07,16,13,23,25.00
2009,07,16,13,24,24.80
2009,07,16,13,25,24.70
2009,07,16,13,26,24.60
2009,07,16,13,27,24.50
2009,07,16,13,28,24.40
2009,07,16,13,29,24.30
2009,07,16,13,30,24.10
2009,07,16,13,31,24.10
2009,07,16,13,32,24.10
2009,07,16,13,33,24.20
2009,07,16,13,34,24.30
2009,07,16,13,35,24.40
2009,07,16,13,36,24.50
2009,07,16,13,37,24.60
2009,07,16,13,38,24.80
2009,07,16,13,39,24.90
2009,07,16,13,40,24.90
2009,07,16,13,41,25.10
2009,07,16,13,42,25.20
2009,07,16,13,43,25.20
2009,07,16,13,44,25.30
2009,07,16,13,45,25.40
2009,07,16,13,46,25.40
2009,07,16,13,47,25.40
2009,07,16,13,48,25.60
2009,07,16,13,49,25.70
2009,07,16,13,50,25.80
2009,07,16,13,51,25.90
2009,07,16,13,52,26.00
2009,07,16,13,53,26.10
2009,07,16,13,54,26.10
2009,07,16,13,55,26.20
2009,07,16,13,56,26.20
2009,07,16,13,57,26.20
2009,07,16,13,58,26.20
2009,07,16,13,59,25.90
2009,07,16,14,00,25.90
2009,07,16,14,01,25.70
2009,07,16,14,02,25.80
2009,07,16,14,03,25.80
2009,07,16,14,04,25.90
2009,07,16,14,05,26.00
2009,07,16,14,06,26.00
2009,07,16,14,07,26.00
2009,07,16,14,08,26.00
2009,07,16,14,09,26.00
2009,07,16,14,10,25.90
2009,07,16,14,11,25.90
2009,07,16,14,12,25.90
2009,07,16,14,13,25.90
2009,07,16,14,14,26.10
2009,07,16,14,15,26.10
2009,07,16,14,16,26.00
2009,07,16,14,17,26.10
2009,07,16,14,18,26.10
2009,07,16,14,19,26.10
2009,07,16,14,20,26.10
2009,07,16,14,21,26.20
2009,07,16,14,22,26.20
2009,07,16,14,23,26.20
2009,07,16,14,24,26.10
2009,07,16,14,25,26.20
2009,07,16,14,26,26.30
2009,07,16,14,27,26.30
2009,07,16,14,28,26.30
2009,07,16,14,29,26.20
2009,07,16,14,30,26.00
2009,07,16,14,31,25.90
2009,07,16,14,32,26.00
2009,07,16,14,33,26.20
2009,07,16,14,34,26.10
2009,07,16,14,35,26.20
2009,07,16,14,36,26.30
2009,07,16,14,37,26.20
2009,07,16,14,38,26.10
2009,07,16,14,39,26.20
2009,07,16,14,40,26.30
2009,07,16,14,41,26.40
2009,07,16,14,42,26.30
2009,07,16,14,43,26.30
2009,07,16,14,44,26.30
2009,07,16,14,45,26.20
2009,07,16,14,46,26.20
2009,07,16,14,47,26.10
2009,07,16,14,48,26.10
2009,07,16,14,49,26.10
2009,07,16,14,50,26.00
2009,07,16,14,51,26.00
2009,07,16,14,52,26.10
2009,07,16,14,53,26.20
2009,07,16,14,54,26.40
2009,07,16,14,55,26.50
2009,07,16,14,56,26.60
2009,07,16,14,57,26.50
2009,07,16,14,58,26.40
2009,07,16,14,59,26.40
2009,07,16,15,00,26.20
2009,07,16,15,01,26.10
2009,07,16,15,02,26.10
2009,07,16,15,03,26.10
2009,07,16,15,04,26.10
2009,07,16,15,05,26.10
2009,07,16,15,06,26.10
2009,07,16,15,07,26.20
2009,07,16,15,08,26.20
2009,07,16,15,09,26.30
2009,07,16,15,10,26.50
2009,07,16,15,11,26.60
2009,07,16,15,12,26.60
2009,07,16,15,13,26.60
2009,07,16,15,14,26.60
2009,07,16,15,15,26.60
2009,07,16,15,16,26.60
2009,07,16,15,17,26.60
2009,07,16,15,18,26.60
2009,07,16,15,19,26.60
2009,07,16,15,20,26.60
2009,07,16,15,21,26.60
2009,07,16,15,22,26.60
2009,07,16,15,23,26.60
2009,07,16,15,24,26.60
2009,07,16,15,25,26.60
2009,07,16,15,26,26.60
2009,07,16,15,27,26.60
2009,07,16,15,28,26.60
2009,07,16,15,29,26.60
2009,07,16,15,30,26.80
2009,07,16,15,31,26.80
2009,07,16,15,32,26.90
2009,07,16,15,33,27.00
2009,07,16,15,34,27.10
2009,07,16,15,35,26.90
2009,07,16,15,36,26.80
2009,07,16,15,37,26.70
2009,07,16,15,38,26.70
2009,07,16,15,39,26.70
2009,07,16,15,40,26.80
2009,07,16,15,41,26.90
2009,07,16,15,42,26.80
2009,07,16,15,43,26.80
2009,07,16,15,44,26.80
2009,07,16,15,45,26.90
2009,07,16,15,46,26.90
2009,07,16,15,47,27.00
2009,07,16,15,48,26.90
2009,07,16,15,49,27.00
2009,07,16,15,50,27.10
2009,07,16,15,51,27.10
2009,07,16,15,52,27.00
2009,07,16,15,53,26.90
2009,07,16,15,54,26.80
2009,07,16,15,55,26.80
2009,07,16,15,56,26.80
2009,07,16,15,57,26.80
2009,07,16,15,58,26.80
2009,07,16,15,59,26.80
2009,07,16,16,00,26.70
2009,07,16,16,01,26.70
2009,07,16,16,02,26.80
2009,07,16,16,03,26.80
2009,07,16,16,04,26.90
2009,07,16,16,05,26.90
2009,07,16,16,06,26.90
2009,07,16,16,07,27.00
2009,07,16,16,08,27.10
2009,07,16,16,09,27.20
2009,07,16,16,10,27.20
2009,07,16,16,11,27.30
2009,07,16,16,12,27.30
2009,07,16,16,13,27.30
2009,07,16,16,14,27.30
2009,07,16,16,15,27.30
2009,07,16,16,16,27.30
2009,07,16,16,17,27.20
2009,07,16,16,18,27.20
2009,07,16,16,19,27.10
2009,07,16,16,20,27.10
2009,07,16,16,21,27.10
2009,07,16,16,22,27.10
2009,07,16,16,23,27.20
2009,07,16,16,24,27.30
2009,07,16,16,25,27.30
2009,07,16,16,26,27.40
2009,07,16,16,27,27.60
2009,07,16,16,28,27.70
2009,07,16,16,29,27.80
2009,07,16,16,30,28.00
2009,07,16,16,31,28.10
2009,07,16,16,32,28.10
2009,07,16,16,33,28.10
2009,07,16,16,34,28.10
2009,07,16,16,35,28.10
2009,07,16,16,36,28.10
2009,07,16,16,37,28.10
2009,07,16,16,38,28.10
2009,07,16,16,39,28.10
2009,07,16,16,40,28.00
2009,07,16,16,41,28.00
2009,07,16,16,42,28.00
2009,07,16,16,43,28.00
2009,07,16,16,44,27.90
2009,07,16,16,45,27.90
2009,07,16,16,46,27.90
2009,07,16,16,47,27.90
2009,07,16,16,48,27.90
2009,07,16,16,49,27.80
2009,07,16,16,50,27.80
2009,07,16,16,51,27.80
2009,07,16,16,52,27.80
2009,07,16,16,53,27.80
2009,07,16,16,54,27.80
2009,07,16,16,55,27.80
2009,07,16,16,56,27.90
2009,07,16,16,57,27.90
2009,07,16,16,58,28.00
2009,07,16,16,59,28.10
2009,07,16,17,00,28.10
2009,07,16,17,01,28.10
2009,07,16,17,02,28.10
2009,07,16,17,03,28.10
2009,07,16,17,04,28.20
2009,07,16,17,05,28.20
2009,07,16,17,06,28.30
2009,07,16,17,07,28.40
2009,07,16,17,08,28.40
2009,07,16,17,09,28.40
2009,07,16,17,10,28.40
2009,07,16,17,11,28.40
2009,07,16,17,12,28.40
2009,07,16,17,13,28.30
2009,07,16,17,14,28.30
2009,07,16,17,15,28.20
2009,07,16,17,16,28.20
2009,07,16,17,17,28.20
2009,07,16,17,18,28.20
2009,07,16,17,19,28.20
2009,07,16,17,20,28.20